Home   Weather   Trinidad   Past weeks
Flag for Cuba

Past Weather in Trinidad, Cuba — Yesterday and Last 2 Weeks

Now
86 °F

Scattered clouds.


Feels Like: 99 °F
Forecast: N/A
Wind: 6 mph from East

Location: Cienfuegos - Las Villas

Current Time: Oct 14, 2019 at 5:09:54 pm

Latest Report: Oct 14, 2019 at 3:50 pm


Visibility: 6 mi

Pressure: 29.95 "Hg

Humidity: 79%

Dew Point: 79 °F

Location of TrinidadLocation

Past Weather in Trinidad — Graph

°F

Trinidad Temperature Yesterday

Maximum temperature yesterday: 90 °F (at 12:50 pm)
Minimum temperature yesterday: 73 °F (at 1:59 am)
Average temperature yesterday: 80 °F

High & Low Weather Summary for the Past Weeks

 TemperatureHumidityPressure
High91 °F (Oct 1, 1:52 pm)100% (Sep 30, 9:59 pm)30.01 "Hg (Sep 30, 9:59 pm)
Low72 °F (Sep 30, 2:59 am)55% (Oct 9, 12:50 pm)29.77 "Hg (Oct 1, 3:59 am)
Average79 °F90%29.90 "Hg
* Reported Sep 29 3:52 pm — Oct 14 3:50 pm, Trinidad. Weather by CustomWeather, © 2019

Note: Actual official high and low records may vary slightly from our data, if they occured in-between our weather recording intervals... More about our weather records

Advertising

Trinidad Weather History for the Previous 24 Hours

Scroll right to see more
 ConditionsComfort  
Time TempWeatherWind HumidityBarometerVisibility
3:50 pm
Mon, Oct 14
86 °FScattered clouds.6 mph79%29.95 "Hg6 mi
2:50 pm88 °FScattered clouds.2 mph66%29.95 "Hg6 mi
1:50 pm88 °FScattered clouds.5 mph66%29.98 "Hg6 mi
12:52 pm90 °FScattered clouds.8 mph63%29.98 "HgN/A
11:53 am88 °FScattered clouds.10 mph70%30.01 "HgN/A
10:50 am86 °FScattered clouds.9 mph75%30.01 "HgN/A
9:50 am82 °FPassing clouds.9 mph79%30.01 "HgN/A
8:50 am81 °FPassing clouds.6 mph89%30.01 "Hg6 mi
7:59 am75 °FMild.8 mph100%30.01 "HgN/A
6:59 am75 °FMild.6 mph94%29.98 "HgN/A
5:59 am75 °FMild.7 mph94%29.95 "HgN/A
4:58 am75 °FMild.8 mph100%29.92 "HgN/A
3:58 am75 °FMild.8 mph100%29.92 "HgN/A
2:59 am77 °FWarm.7 mph94%29.95 "HgN/A
1:59 am77 °FWarm.6 mph94%29.98 "HgN/A
12:59 am77 °FWarm.6 mph94%29.98 "HgN/A
11:58 pm
Sun, Oct 13
77 °FWarm.6 mph94%30.01 "HgN/A
10:58 pm77 °FWarm.6 mph94%30.01 "HgN/A
9:58 pm77 °FWarm.8 mph94%29.98 "HgN/A
8:58 pm77 °FWarm.6 mph94%29.95 "HgN/A
7:58 pm79 °FWarm.6 mph89%29.95 "HgN/A
6:58 pm79 °FWarm.6 mph84%29.95 "HgN/A
5:58 pm81 °FWarm.3 mph84%29.92 "HgN/A
Weather by CustomWeather, © 2019

See weather overview